Weather History for PADU - March, 2014

Change the Weather History Date:

Monday, March 3, 2014

  Actual Average Record
Temperature  
Mean Temperature 39 °F -  
Max Temperature 41 °F 38 °F 48 °F (2009)
Min Temperature 37 °F 27 °F 19 °F (1989)
Degree Days  
Heating Degree Days 26    
Moisture  
Dew Point 33 °F    
Average Humidity 80    
Maximum Humidity 93    
Minimum Humidity 65    
Precipitation  
Precipitation 0.04 in - - ()
Sea Level Pressure  
Sea Level Pressure 29.79 in    
Wind  
Wind Speed 10 mph (East)    
Max Wind Speed 15 mph    
Max Gust Speed 22 mph    
Visibility 9 miles    
Events Rain    
Averages and records for this station are not official NWS values.
T = Trace of Precipitation, MM = Missing Value Source: NWS Daily Summary

Daily Weather History Graph

Daily Weather History Graph

Search for Another Location

Airport or City:

Trip Planner

Search our weather history database for the weather conditions in past years. The results will help you decide how hot, cold, wet, or windy it might be!

Date:

Astronomy

Mar. 03, 2014 Rise Set
Actual Time 8:49 AM AKST 7:47 PM AKST
Civil Twilight 8:13 AM AKST 8:23 PM AKST
Nautical Twilight 7:33 AM AKST 9:04 PM AKST
Astronomical Twilight 6:51 AM AKST 9:45 PM AKST
Moon 9:36 AM AKST (3/3) 11:39 PM AKST (3/3)
Length of Visible Light 12h 09m
Length of Day
10h 58m
Waxing Crescent, 9% of the Moon is Illuminated
Mar 3
Waxing Crescent
Mar 8
First Quarter
Mar 16
Full
Mar 23
Last Quarter
Mar 30
New

Hourly Weather History & Observations

Time (AKST) Temp. Windchill Dew Point Humidity Pressure Visibility Wind Dir Wind Speed Gust Speed Precip Events Conditions
12:56 AM 37.9 °F 30.0 °F 34.0 °F 86% 29.74 in 9.0 mi East 12.7 mph - 0.00 in Rain Light Rain
1:37 AM 37.4 °F 30.8 °F 33.8 °F 87% 29.72 in 10.0 mi ENE 9.2 mph - 0.00 in Rain Light Rain
1:56 AM 37.9 °F 30.0 °F 34.0 °F 86% 29.74 in 6.0 mi East 12.7 mph - 0.01 in Rain Light Rain
2:35 AM 37.4 °F 28.5 °F 35.6 °F 93% 29.72 in 6.0 mi East 15.0 mph 21.9 mph 0.01 in Rain Light Rain
2:56 AM 39.0 °F 32.8 °F 35.1 °F 86% 29.75 in 5.0 mi East 9.2 mph - 0.02 in Rain Light Rain
3:43 AM 39.2 °F 31.2 °F 33.8 °F 81% 29.73 in 10.0 mi East 13.8 mph - 0.01 in Rain Light Rain
3:56 AM 39.0 °F 30.6 °F 34.0 °F 82% 29.74 in 10.0 mi East 15.0 mph 20.7 mph 0.01 in Rain Light Rain
4:56 AM 37.9 °F 29.2 °F 35.1 °F 89% 29.75 in 10.0 mi East 15.0 mph - 0.00 in Rain Light Rain
5:56 AM 37.9 °F 30.0 °F 34.0 °F 86% 29.75 in 10.0 mi East 12.7 mph - 0.00 in Rain Light Rain
6:56 AM 37.9 °F 29.6 °F 34.0 °F 86% 29.76 in 6.0 mi East 13.8 mph 17.3 mph 0.00 in Rain Light Rain
7:56 AM 39.0 °F 31.8 °F 33.1 °F 79% 29.76 in 10.0 mi East 11.5 mph - 0.00 in Rain Light Rain
8:56 AM 39.0 °F 32.8 °F 33.1 °F 79% 29.78 in 10.0 mi ENE 9.2 mph - 0.00 in Rain Light Rain
9:56 AM 39.0 °F 35.7 °F 34.0 °F 82% 29.79 in 10.0 mi Variable 4.6 mph - 0.00 in Rain Light Rain
10:56 AM 39.0 °F 34.8 °F 34.0 °F 82% 29.80 in 10.0 mi ENE 5.8 mph - 0.00 in   Overcast
11:56 AM 39.0 °F 32.8 °F 34.0 °F 82% 29.80 in 10.0 mi ENE 9.2 mph - 0.00 in   Overcast
12:56 PM 39.9 °F 35.1 °F 34.0 °F 79% 29.81 in 10.0 mi Variable 6.9 mph - 0.00 in   Mostly Cloudy
1:56 PM 39.9 °F 35.8 °F 34.0 °F 79% 29.81 in 10.0 mi East 5.8 mph - N/A   Mostly Cloudy
2:56 PM 41.0 °F 37.1 °F 33.1 °F 73% 29.80 in 10.0 mi ESE 5.8 mph - N/A   Mostly Cloudy
3:38 PM 41.0 °F 35.2 °F 30.2 °F 65% 29.78 in 10.0 mi East 9.2 mph - N/A   Mostly Cloudy
3:56 PM 41.0 °F 36.4 °F 32.0 °F 70% 29.79 in 10.0 mi East 6.9 mph - N/A   Mostly Cloudy
4:56 PM 39.9 °F 33.4 °F 32.0 °F 73% 29.80 in 10.0 mi ESE 10.4 mph - N/A   Mostly Cloudy
5:08 PM 39.2 °F 34.2 °F 32.0 °F 75% 29.78 in 10.0 mi East 6.9 mph - N/A   Overcast
5:56 PM 39.9 °F 33.9 °F 32.0 °F 73% 29.80 in 10.0 mi East 9.2 mph - N/A   Overcast
6:56 PM 39.9 °F 36.7 °F 32.0 °F 73% 29.81 in 10.0 mi East 4.6 mph - N/A   Overcast
7:46 PM 39.2 °F 37.0 °F 32.0 °F 75% 29.80 in 10.0 mi ENE 3.5 mph - N/A   Overcast
7:56 PM 39.0 °F 34.8 °F 32.0 °F 76% 29.82 in 10.0 mi East 5.8 mph - N/A   Overcast
8:56 PM 39.0 °F - 32.0 °F 76% 29.83 in 10.0 mi Calm Calm - N/A   Overcast
9:17 PM 39.2 °F 35.9 °F 32.0 °F 75% 29.81 in 10.0 mi ENE 4.6 mph - N/A   Overcast
9:56 PM 39.0 °F 31.8 °F 30.9 °F 73% 29.83 in 10.0 mi East 11.5 mph - N/A   Overcast
10:56 PM 39.0 °F 33.4 °F 33.1 °F 79% 29.84 in 10.0 mi East 8.1 mph - N/A   Overcast
11:36 PM 37.4 °F 33.8 °F 33.8 °F 87% 29.83 in 10.0 mi ENE 4.6 mph - N/A   Overcast
11:56 PM 37.9 °F - 34.0 °F 86% 29.85 in 9.0 mi Calm Calm - N/A   Overcast